Dewpoint
-9 -15 -16 -14 -11 -9 -9 -9 -9 -10 -14 -18 -18 -9 -8 -8 -8 -8 -8 -9 -8 -8 -7 -6 -6 -6 -5 -3 -2 -1 -0 2 3 5 6 7 7 6 7 6 10 10 10
-11 -16 -16 -14 -12 -10 -9 -10 -11 -13 -16 -21 -24 -9 -8 -8 -8 -8 -9 -8 -8 -8 -7 -7 -6 -6 -5 -3 -1 -0 1 3 4 5 7 6 6 6 6 5 7 9 11
-14 -16 -15 -13 -11 -10 -10 -11 -12 -16 -20 -23 -28 -12 -9 -8 -8 -8 -9 -8 -8 -8 -7 -7 -7 -6 -5 -3 -1 -0 1 3 5 6 6 6 6 7 8 10 7 7 9
-15 -17 -14 -13 -10 -10 -11 -11 -12 -14 -18 -24 -29 -16 -10 -9 -10 -10 -10 -8 -7 -7 -7 -7 -7 -7 -6 -4 -2 -0 0 3 5 6 6 6 7 8 10 10 10 8 8
-16 -16 -14 -12 -11 -12 -11 -11 -11 -13 -17 -21 -28 -24 -13 -12 -13 -12 -10 -9 -7 -7 -6 -6 -7 -6 -6 -6 -3 -1 0 1 3 5 6 7 8 8 8 10 10 10 10
-16 -16 -14 -14 -13 -12 -12 -11 -10 -12 -17 -22 -26 -28 -24 -20 -18 -15 -12 -9 -8 -7 -7 -6 -6 -6 -5 -5 -3 -2 -1 0 2 3 4 5 6 6 8 9 10 10 10
-17 -16 -15 -15 -14 -12 -12 -11 -11 -13 -18 -24 -25 -26 -27 -24 -22 -18 -15 -11 -9 -8 -7 -6 -6 -6 -5 -4 -3 -2 -2 -1 -1 1 2 5 4 6 8 8 8 9 9
-17 -17 -16 -16 -15 -12 -12 -13 -12 -15 -20 -24 -25 -25 -26 -25 -25 -22 -20 -15 -11 -9 -8 -7 -6 -6 -5 -4 -3 -3 -2 -1 -2 -1 1 2 4 5 7 8 8 8 7
-18 -18 -16 -15 -16 -14 -15 -14 -14 -17 -21 -24 -25 -25 -25 -26 -26 -27 -26 -22 -15 -11 -9 -8 -7 -6 -5 -4 -3 -3 -2 -2 -2 -1 -0 2 5 5 6 6 7 7 8
-19 -18 -15 -16 -16 -18 -17 -17 -17 -20 -22 -24 -24 -24 -24 -26 -27 -28 -28 -29 -25 -17 -13 -9 -8 -7 -5 -5 -4 -3 -3 -3 -1 0 2 3 4 5 5 5 5 6 7
-19 -19 -16 -16 -18 -21 -19 -20 -20 -23 -24 -24 -24 -23 -23 -25 -26 -26 -27 -28 -30 -27 -21 -14 -10 -9 -8 -6 -4 -4 -4 -3 -2 -1 -0 0 1 2 3 3 4 4 5
-18 -19 -18 -18 -20 -24 -23 -24 -24 -25 -25 -25 -25 -24 -23 -24 -25 -25 -26 -27 -28 -29 -28 -24 -16 -13 -10 -9 -7 -5 -4 -4 -3 -2 -2 -2 -1 -1 -1 0 1 2 3
-17 -18 -19 -21 -23 -25 -25 -25 -26 -26 -26 -26 -26 -26 -24 -24 -25 -25 -25 -26 -28 -29 -29 -29 -28 -26 -19 -15 -12 -10 -9 -7 -6 -4 -4 -3 -3 -3 -2 -1 -1 -1 0
-17 -17 -16 -22 -24 -25 -25 -26 -26 -27 -28 -28 -27 -27 -27 -27 -27 -27 -27 -27 -27 -28 -29 -29 -29 -30 -32 -31 -27 -22 -18 -13 -9 -9 -8 -6 -4 -2 -2 -1 -1 -1 -0
-17 -16 -16 -15 -19 -22 -25 -26 -26 -27 -27 -28 -29 -29 -30 -30 -28 -28 -29 -29 -29 -29 -29 -29 -29 -28 -28 -29 -30 -31 -32 -31 -27 -21 -16 -12 -10 -8 -7 -6 -5 -3 -2
-17 -17 -17 -17 -19 -19 -21 -25 -26 -27 -27 -28 -29 -29 -29 -30 -30 -30 -30 -31 -32 -33 -36 -35 -33 -32 -31 -29 -29 -29 -29 -30 -30 -30 -30 -30 -29 -23 -18 -16 -14 -12 -10
-17 -17 -18 -18 -19 -20 -22 -24 -24 -26 -27 -28 -28 -29 -30 -31 -31 -32 -32 -34 -35 -37 -38 -36 -36 -35 -34 -33 -32 -32 -31 -30 -30 -30 -29 -29 -29 -29 -30 -30 -29 -28 -26
-15 -15 -18 -19 -19 -21 -23 -24 -24 -25 -25 -27 -27 -28 -29 -31 -32 -33 -33 -35 -38 -39 -39 -38 -36 -35 -35 -36 -37 -37 -37 -38 -40 -40 -40 -40 -39 -39 -38 -36 -34 -32 -31
-16 -17 -19 -20 -21 -22 -23 -23 -23 -24 -25 -26 -27 -27 -29 -30 -32 -33 -33 -36 -37 -37 -37 -38 -39 -39 -39 -39 -40 -40 -41 -41 -41 -42 -42 -42 -42 -41 -41 -41 -41 -42 -41
-15 -15 -17 -20 -22 -23 -23 -23 -23 -23 -24 -25 -25 -27 -27 -28 -30 -32 -35 -36 -37 -37 -36 -36 -37 -38 -40 -41 -41 -41 -41 -41 -41 -41 -41 -41 -41 -41 -41 -40 -40 -41 -40
-16 -16 -17 -19 -22 -23 -23 -23 -22 -22 -23 -23 -24 -24 -25 -26 -28 -29 -32 -35 -36 -37 -37 -37 -37 -37 -38 -40 -41 -41 -41 -41 -41 -41 -40 -40 -39 -38 -37 -37 -36 -36 -36
-16 -17 -17 -19 -21 -23 -23 -23 -22 -22 -22 -22 -22 -23 -23 -24 -25 -27 -28 -31 -34 -35 -37 -37 -38 -39 -39 -40 -40 -40 -40 -40 -40 -40 -39 -38 -37 -37 -36 -35 -35 -35 -34
-16 -16 -16 -17 -19 -20 -22 -22 -23 -22 -22 -22 -22 -22 -22 -22 -23 -24 -25 -27 -29 -32 -34 -36 -37 -38 -39 -40 -40 -40 -40 -40 -40 -39 -39 -38 -37 -37 -36 -36 -35 -35 -34
-15 -15 -15 -15 -17 -18 -19 -21 -22 -22 -22 -22 -22 -21 -21 -21 -21 -22 -22 -23 -25 -26 -29 -33 -35 -36 -38 -39 -39 -39 -39 -40 -39 -39 -39 -38 -37 -37 -36 -36 -36 -35 -35
-12 -14 -15 -15 -15 -16 -17 -18 -19 -20 -21 -22 -21 -21 -21 -21 -21 -20 -21 -21 -21 -22 -24 -26 -30 -32 -35 -37 -38 -39 -38 -38 -38 -38 -38 -38 -38 -37 -37 -36 -36 -36 -35
-9 -10 -13 -14 -14 -14 -15 -16 -17 -17 -19 -20 -20 -21 -21 -21 -21 -20 -20 -20 -20 -20 -21 -22 -23 -25 -29 -31 -34 -35 -36 -36 -37 -37 -36 -37 -37 -37 -37 -36 -35 -35 -34
Wind_Speed
14 14 16 16 16 16 19 19 21 24 27 29 30 29 29 29 30 31 30 28 26 24 25 28 32 33 30 23 21 19 19 23 24 22 25 28 28 24 18 22 41 53 51
13 13 16 16 17 17 19 19 21 24 24 27 29 27 28 31 32 33 32 30 28 28 27 30 34 35 33 27 22 20 18 21 27 27 24 27 25 17 21 28 35 43 51
11 13 16 16 16 17 18 19 22 25 25 26 28 26 27 30 33 32 33 34 30 29 28 30 33 35 36 33 27 22 20 24 27 26 27 25 15 13 15 25 42 48 52
10 13 15 15 15 16 17 19 22 25 26 27 28 25 27 30 30 31 33 36 34 31 29 29 31 31 35 36 33 27 24 29 31 28 27 25 13 18 41 41 44 49 52
9 13 14 13 14 14 16 18 20 25 26 27 28 26 26 29 29 31 32 36 37 34 32 31 29 28 32 36 38 34 28 34 35 32 31 25 16 19 36 44 47 52 48
9 12 12 12 13 14 15 17 19 22 25 26 28 27 27 28 27 30 31 34 38 38 35 32 31 30 32 35 36 37 34 36 36 34 33 31 21 20 24 41 41 42 40
7 10 11 11 12 14 15 15 17 21 23 25 26 27 26 27 28 28 31 34 35 38 38 34 33 31 31 32 34 36 39 38 37 36 32 30 23 27 29 24 26 33 31
7 9 10 11 12 14 15 16 16 20 23 24 25 25 25 27 27 27 29 32 34 35 38 34 33 31 31 31 34 37 39 40 40 38 35 31 27 28 29 27 24 24 25
6 8 10 11 12 13 14 15 16 19 22 24 24 24 25 26 27 27 29 31 34 35 36 36 34 32 30 30 32 36 37 39 38 39 37 30 30 26 30 25 20 21 25
6 8 10 11 12 13 14 14 16 18 20 22 24 24 25 27 28 28 29 30 32 33 34 34 34 33 30 30 33 36 38 37 37 37 38 35 31 30 30 28 26 21 21
5 6 8 10 11 13 13 14 15 16 18 21 23 25 25 26 28 29 29 31 31 32 34 35 34 33 34 32 33 36 37 35 36 39 42 42 40 38 36 32 30 31 31
6 6 7 9 11 13 13 14 14 15 17 20 22 24 25 25 27 28 29 28 29 31 32 32 31 32 33 35 36 34 34 35 36 38 41 43 43 41 39 39 35 34 32
6 6 8 9 10 11 11 13 13 14 16 19 20 22 23 24 26 27 27 27 28 29 30 30 30 31 33 35 37 37 38 39 40 41 40 39 39 38 36 36 39 41 37
6 7 8 7 9 9 10 12 12 14 16 17 19 20 21 23 26 25 25 25 25 26 28 30 31 33 36 36 38 39 40 41 42 42 40 38 35 33 34 34 33 33 37
7 7 6 6 7 7 9 11 12 14 15 16 18 19 21 25 26 24 23 24 23 23 25 27 30 33 35 37 38 38 39 39 41 39 39 39 39 38 37 35 35 33 34
8 7 5 4 5 6 8 9 11 12 14 15 17 19 21 21 20 21 21 21 21 21 26 29 31 33 34 34 35 36 36 37 37 38 39 40 40 39 37 38 38 38 39
8 7 5 4 3 5 6 7 8 9 10 13 15 16 16 18 18 19 19 19 20 21 28 29 30 31 31 31 31 32 33 33 33 34 35 36 36 36 37 38 38 38 39
8 7 5 3 3 3 4 5 6 7 8 9 11 12 14 14 16 17 17 14 17 22 25 26 27 27 27 27 27 27 27 28 31 32 32 33 34 34 35 35 35 36 36
11 8 5 5 4 3 2 3 4 5 5 6 7 9 10 12 13 13 13 14 18 20 21 21 22 23 24 24 25 25 26 27 29 31 32 32 33 34 35 34 34 34 35
12 9 7 6 4 4 3 2 2 3 3 4 5 6 7 9 10 10 12 13 14 16 17 17 18 18 19 20 21 22 24 24 26 28 29 30 30 31 32 32 33 33 34
12 11 9 9 7 6 5 4 3 2 2 2 3 4 5 5 6 7 9 10 10 11 12 13 14 15 15 16 17 18 19 20 22 23 24 25 25 27 27 27 28 28 28
13 11 10 9 8 8 7 6 5 4 2 2 0 1 2 3 2 3 4 5 6 6 7 8 9 10 11 11 12 13 15 15 16 17 18 19 19 20 20 21 22 22 22
14 13 12 12 10 9 9 8 7 6 5 5 4 3 1 1 1 0 1 1 2 3 3 3 4 5 5 6 7 7 8 8 10 11 11 12 12 14 15 15 16 17 17
14 14 13 12 12 11 10 10 9 9 8 7 7 7 5 4 3 3 3 3 2 2 1 1 1 1 1 1 2 3 3 3 3 4 5 6 7 8 9 10 11 12 13
16 15 15 14 13 12 12 12 11 11 11 10 9 9 9 8 7 6 7 6 6 6 6 5 5 5 5 5 4 4 4 3 3 2 1 2 2 4 5 6 7 8 9
18 16 15 15 14 14 14 14 13 12 12 11 11 11 11 11 11 11 10 10 10 10 10 9 9 9 9 9 9 9 9 8 8 7 7 6 6 6 6 7 8 8 9
Wind_Direction
15 22 30 32 29 28 24 18 14 9 10 12 16 20 29 28 26 26 19 17 21 25 24 25 30 33 34 40 54 73 89 104 107 108 121 141 158 177 203 206 180 189 194
19 31 36 37 35 34 26 21 14 12 13 13 17 22 30 30 28 26 25 25 29 29 25 28 29 34 40 48 54 71 89 102 104 105 136 153 165 182 222 216 195 189 189
25 40 39 38 35 31 28 24 23 21 23 19 20 23 28 28 25 27 29 32 34 36 32 32 31 33 41 49 55 72 89 101 107 112 115 133 150 202 215 175 184 191 190
39 44 41 37 34 30 32 28 25 25 25 26 24 27 29 30 23 25 32 38 40 41 40 39 38 40 43 50 56 70 85 98 105 109 111 108 129 132 141 151 166 179 182
48 48 43 37 35 39 36 31 25 24 26 25 30 33 34 31 22 27 32 39 44 45 43 44 44 48 58 56 59 63 78 89 93 98 99 105 121 127 129 144 158 172 178
52 53 46 39 41 43 40 34 26 23 26 27 32 33 37 36 28 31 34 40 45 46 42 45 45 49 59 64 66 67 67 75 84 85 88 96 115 133 126 130 153 173 174
56 56 51 46 48 47 43 35 26 22 26 31 34 36 38 39 34 34 37 42 45 49 45 44 47 49 58 66 69 71 68 71 77 81 81 89 96 116 136 141 152 157 165
66 59 57 54 56 52 44 37 28 22 29 34 36 38 39 43 36 38 39 44 47 48 51 46 49 51 56 65 71 72 70 71 71 75 80 80 93 110 125 135 152 171 161
73 65 61 60 59 53 45 36 30 27 32 35 39 39 41 45 42 41 41 43 48 49 49 49 50 53 57 66 75 78 78 75 78 82 86 91 91 100 105 117 138 153 149
84 79 65 59 52 49 44 40 34 32 38 39 43 46 44 45 45 44 43 44 48 51 52 53 52 53 57 63 70 75 76 73 75 81 85 90 93 92 91 97 99 112 159
100 84 68 58 51 50 49 48 45 42 43 45 46 49 48 45 45 44 43 44 46 49 52 53 54 55 58 61 66 72 75 79 80 79 80 80 82 85 84 84 87 89 86
116 100 76 64 58 57 57 58 56 52 50 53 49 50 49 48 47 47 45 45 47 52 55 57 58 58 60 64 68 75 78 79 80 79 78 77 78 80 81 80 82 83 83
137 121 89 74 68 67 67 68 66 62 57 58 55 54 52 52 50 48 49 49 52 55 60 61 64 66 67 67 68 70 71 72 74 74 74 76 80 86 90 89 86 87 88
152 119 102 89 78 74 72 74 71 72 65 62 60 57 54 56 56 52 52 54 57 60 64 65 66 67 67 69 69 68 70 70 72 75 76 78 82 83 83 85 86 83 83
161 140 129 104 91 80 75 75 72 72 68 63 63 59 54 50 49 50 52 53 56 62 68 68 66 65 66 68 69 70 72 74 75 76 75 75 76 77 78 77 78 80 80
173 158 147 135 100 81 75 73 69 67 69 65 61 55 53 56 51 50 50 54 57 62 66 66 65 64 64 63 65 67 69 69 71 74 74 75 74 74 76 77 76 74 75
178 172 167 152 116 86 80 76 68 69 65 64 64 63 59 56 56 54 51 51 55 58 62 64 64 64 63 63 62 64 65 67 70 70 73 73 74 74 73 72 73 74 72
185 192 183 169 146 116 102 86 80 73 66 67 68 65 63 59 58 59 58 54 65 64 62 61 64 66 65 64 65 66 68 71 71 71 71 73 74 74 72 71 71 72 72
193 196 194 190 178 166 144 106 93 93 93 82 71 66 62 62 62 61 64 62 64 68 69 68 65 62 62 66 67 69 70 72 74 74 73 72 73 72 72 72 72 72 70
199 201 205 207 208 211 216 181 151 118 117 101 87 77 67 62 58 59 59 58 61 67 68 70 71 71 71 71 70 71 72 73 75 75 74 73 73 74 73 72 70 69 69
203 205 210 215 217 217 223 220 217 184 158 98 83 81 72 65 55 53 54 61 61 63 69 69 68 69 70 74 79 79 79 79 78 77 77 76 75 72 72 71 70 68 67
208 210 215 219 223 225 229 234 232 228 216 226 255 78 81 82 68 59 54 55 60 64 68 70 72 74 74 73 75 78 80 82 82 79 79 77 75 73 70 68 66 63 61
211 213 215 221 225 225 229 233 234 240 231 232 242 242 232 180 221 150 85 39 52 58 67 77 82 84 87 89 87 87 87 85 82 80 73 74 72 70 66 62 60 57 53
218 219 221 225 226 228 232 234 233 236 241 238 239 244 247 247 235 240 244 247 247 252 262 245 217 186 163 142 131 125 120 111 95 83 75 65 53 51 47 45 42 40 38
220 223 226 227 229 230 232 235 237 237 240 244 243 243 247 251 252 246 248 245 244 244 243 249 251 246 238 237 234 232 232 236 240 242 274 320 353 359 5 7 7 7 9
223 226 229 232 233 232 232 235 236 236 239 244 246 249 252 254 254 254 253 252 249 250 250 249 250 249 248 247 246 246 247 249 252 257 262 270 280 290 304 312 317 324 331
Height
1545 1541 1538 1534 1532 1529 1525 1520 1516 1510 1504 1497 1489 1483 1476 1470 1464 1457 1451 1444 1436 1430 1423 1416 1409 1401 1394 1387 1383 1383 1383 1384 1387 1390 1394 1400 1408 1418 1429 1437 1445 1454 1465
1546 1543 1539 1536 1534 1530 1527 1523 1518 1513 1507 1500 1493 1486 1480 1474 1468 1461 1454 1447 1439 1432 1426 1418 1412 1405 1399 1392 1387 1384 1384 1385 1389 1392 1397 1403 1411 1421 1423 1431 1440 1451 1461
1547 1544 1540 1538 1536 1533 1529 1525 1521 1516 1510 1503 1496 1490 1483 1477 1472 1466 1459 1451 1444 1437 1431 1424 1418 1411 1403 1398 1392 1389 1388 1387 1389 1394 1399 1405 1412 1415 1414 1422 1434 1448 1462
1548 1544 1542 1540 1538 1535 1532 1528 1523 1519 1513 1506 1500 1493 1487 1481 1476 1470 1464 1456 1449 1442 1436 1430 1424 1419 1411 1405 1400 1396 1394 1392 1395 1397 1402 1404 1413 1415 1413 1423 1436 1448 1460
1549 1546 1544 1542 1540 1537 1534 1530 1526 1522 1517 1511 1505 1498 1492 1486 1481 1475 1469 1461 1454 1448 1442 1436 1431 1427 1421 1414 1407 1404 1401 1399 1399 1401 1403 1406 1411 1415 1416 1423 1433 1443 1458
1549 1547 1546 1544 1542 1539 1536 1533 1529 1525 1520 1515 1508 1502 1497 1492 1488 1482 1476 1468 1461 1453 1449 1443 1438 1433 1428 1422 1418 1414 1410 1404 1406 1407 1409 1414 1421 1423 1422 1423 1434 1447 1460
1550 1549 1548 1546 1544 1542 1539 1536 1532 1527 1523 1518 1512 1507 1502 1497 1493 1488 1482 1476 1469 1463 1457 1451 1446 1442 1437 1432 1428 1424 1419 1417 1417 1418 1421 1421 1426 1423 1426 1430 1439 1447 1456
1551 1550 1550 1549 1546 1545 1542 1538 1535 1531 1527 1522 1517 1512 1508 1503 1499 1494 1489 1483 1477 1472 1466 1462 1455 1451 1445 1442 1437 1434 1431 1428 1426 1427 1428 1429 1428 1428 1430 1436 1443 1451 1459
1552 1552 1552 1551 1549 1547 1544 1542 1539 1535 1531 1527 1522 1517 1513 1508 1504 1500 1495 1489 1484 1479 1473 1468 1463 1458 1455 1451 1446 1443 1442 1441 1438 1437 1435 1434 1435 1437 1439 1443 1447 1452 1456
1554 1554 1554 1553 1552 1550 1548 1545 1543 1539 1536 1532 1527 1522 1519 1514 1509 1506 1502 1497 1491 1487 1483 1478 1474 1469 1465 1460 1454 1451 1446 1449 1448 1445 1440 1439 1441 1444 1446 1448 1451 1454 1460
1556 1556 1555 1555 1554 1553 1551 1549 1546 1543 1540 1536 1532 1528 1524 1520 1516 1512 1508 1504 1499 1495 1490 1486 1483 1479 1475 1469 1464 1459 1459 1460 1458 1454 1451 1450 1451 1452 1455 1457 1460 1461 1463
1557 1557 1557 1557 1557 1556 1554 1552 1549 1547 1544 1541 1538 1534 1530 1526 1523 1519 1515 1512 1509 1504 1499 1496 1493 1489 1484 1481 1476 1475 1472 1469 1467 1464 1462 1462 1462 1464 1466 1467 1468 1468 1470
1557 1558 1560 1560 1558 1557 1556 1554 1552 1551 1548 1545 1543 1540 1537 1533 1529 1526 1523 1519 1515 1512 1508 1505 1504 1500 1496 1492 1488 1485 1481 1480 1476 1472 1475 1476 1476 1478 1479 1478 1479 1479 1479
1558 1560 1560 1560 1560 1559 1558 1557 1556 1554 1552 1550 1548 1546 1544 1540 1536 1534 1531 1528 1524 1521 1518 1516 1512 1509 1504 1501 1498 1496 1493 1490 1487 1489 1491 1489 1489 1487 1485 1486 1486 1487 1485
1558 1559 1561 1562 1561 1560 1560 1561 1560 1559 1558 1555 1552 1551 1548 1545 1543 1541 1537 1535 1533 1529 1525 1523 1519 1515 1513 1512 1510 1507 1505 1504 1501 1501 1499 1498 1496 1493 1494 1496 1494 1494 1492
1558 1559 1561 1561 1561 1563 1564 1563 1562 1560 1559 1558 1556 1555 1553 1551 1550 1547 1545 1542 1540 1538 1534 1530 1527 1525 1523 1522 1519 1518 1516 1513 1511 1509 1508 1506 1504 1505 1507 1505 1503 1501 1502
1558 1559 1561 1562 1563 1564 1564 1563 1563 1562 1561 1561 1560 1559 1557 1555 1554 1552 1550 1548 1546 1543 1539 1537 1534 1532 1531 1531 1529 1527 1525 1523 1523 1520 1518 1516 1516 1515 1513 1511 1512 1513 1511
1558 1559 1560 1561 1562 1563 1563 1563 1564 1564 1564 1563 1561 1560 1560 1559 1557 1556 1555 1555 1552 1549 1546 1543 1542 1542 1541 1539 1538 1537 1536 1534 1531 1530 1528 1527 1525 1525 1523 1522 1522 1522 1520
1556 1556 1557 1560 1561 1562 1563 1564 1564 1564 1563 1563 1563 1563 1562 1561 1560 1559 1559 1558 1555 1554 1553 1552 1550 1549 1547 1546 1546 1544 1543 1541 1539 1537 1536 1535 1533 1532 1531 1532 1531 1529 1528
1554 1556 1558 1560 1561 1562 1563 1563 1563 1565 1564 1563 1563 1563 1564 1563 1563 1562 1561 1560 1559 1558 1557 1557 1556 1556 1555 1553 1551 1549 1547 1547 1546 1544 1543 1542 1541 1540 1539 1539 1538 1536 1534
1553 1555 1557 1559 1560 1561 1562 1563 1564 1564 1564 1565 1565 1565 1565 1566 1565 1565 1564 1563 1562 1561 1560 1560 1559 1559 1558 1558 1556 1554 1554 1555 1552 1551 1549 1549 1548 1546 1545 1545 1544 1542 1541
1552 1554 1556 1557 1559 1560 1562 1563 1564 1565 1565 1565 1565 1565 1565 1566 1565 1564 1564 1564 1564 1563 1562 1562 1561 1561 1560 1559 1559 1558 1557 1558 1558 1556 1554 1553 1553 1551 1551 1549 1548 1547 1547
1550 1552 1553 1555 1557 1559 1560 1561 1562 1563 1564 1564 1563 1564 1564 1564 1563 1564 1564 1564 1564 1564 1563 1563 1563 1562 1561 1561 1560 1560 1560 1560 1558 1557 1557 1558 1557 1555 1553 1553 1551 1551 1550
1548 1550 1551 1553 1555 1556 1557 1558 1559 1560 1561 1562 1562 1562 1562 1563 1563 1563 1563 1563 1563 1563 1562 1562 1562 1563 1562 1562 1562 1561 1561 1560 1559 1559 1558 1558 1558 1557 1557 1555 1554 1553 1553
1544 1546 1548 1549 1551 1552 1554 1555 1556 1557 1558 1558 1560 1561 1561 1561 1561 1561 1561 1560 1560 1560 1560 1560 1560 1560 1560 1560 1561 1560 1560 1560 1560 1559 1559 1558 1557 1556 1555 1554 1554 1553 1552
1541 1543 1544 1545 1547 1548 1550 1551 1551 1553 1554 1555 1556 1557 1558 1558 1558 1558 1557 1557 1557 1557 1558 1559 1558 1558 1558 1558 1558 1558 1558 1558 1558 1558 1557 1556 1556 1555 1554 1553 1552 1551 1550